Regional Weather Roundup
Issued by NWS Grand Forks, ND

Home | Current Version | Previous Version | Text Only | Print | Product List | Glossary On
Versions: 1 2 3 4 5 6 7 8 9 10 11 12 13 14 15 16 17 18 19 20 21 22 23 24 25 26 27 28 29 30 31 32 33 34 35 36 37 38 39 40 41 42 43 44 45 46 47 48 49 50
000
ASUS43 KFGF 231110
RWRFGF
PRAIRIE TO PINES  WEATHER ROUNDUP
NATIONAL WEATHER SERVICE EASTERN NORTH DAKOTA/GRAND FORKS ND
600 AM CDT WED MAY 23 2018

 **SATELLITE DATA USED TO AUGMENT SKY COVER AT AUTOMATED STATIONS**
 *****  WEATHER ACROSS EASTERN NORTH DAKOTA  *****

CITY           SKY/WX    TMP DP  RH WIND       PRES   REMARKS
GRAND FORKS    MOCLDY    60  56  86 S7        30.02R
GRAND FRKS AFB FAIR      62  58  84 S6        30.03R
GRAND FRKS NWS   N/A     61  55  80 S3        30.01R
DEVILS LAKE    FAIR      62  56  80 SE10      30.00S
FARGO          FAIR      64  56  75 SE9       30.01S
WAHPETON ARPT  FAIR      63  54  72 SE6       30.01F
$$

 ***** WEATHER ACROSS CENTRAL AND WESTERN NORTH DAKOTA  *****

CITY           SKY/WX    TMP DP  RH WIND       PRES   REMARKS
BISMARCK       FAIR      60  57  89 E3        29.95S
MINOT          FAIR      56  51  84 CALM      29.95R
JAMESTOWN      FAIR      59  56  89 E5        29.99S
MINOT AFB      FAIR      54  52  94 SE8       29.94R
GARRISON         N/A     56  52  86 E7        29.94S
WILLISTON      FAIR      57  51  80 NE3       29.91S
DICKINSON      FAIR      59  55  87 E9        29.91S
HETTINGER      FAIR      59  57  93 E7        29.91F
$$

 *****  OTHER AIRPORT OBSERVATIONS IN OUR AREA  *****

CITY           SKY/WX    TMP DP  RH WIND       PRES   REMARKS
WALHALLA       FAIR      59  59 100 SE6       30.00R
GRAFTON AIRPOR FAIR      55  55 100 S5        30.04R
VALLEY CITY AR FAIR      63  63 100 SE7       30.02F
CANDO          FAIR      59  59 100 E7        30.02R
CAVALIER APRT    N/A     57  55  94 SE5       30.01R
GWINNER          N/A     61  57  88 CALM      30.00R
SHEYENNE NWR     N/A     58  56  94 E5        29.95S
ROLLA          FAIR      55  55 100 S6        30.01R
 ***** THE ABOVE OBSERVATIONS ARE NON NWS ARE NOT QUALITY
       CONTROLLED AND MAY MIS-REPORT RAIN FOR SNOW...
$$

  *****  WEATHER ACROSS NORTHERN MINNESOTA  *****

CITY           SKY/WX    TMP DP  RH WIND       PRES   REMARKS
FLAG ISLAND    FAIR      55  54  94 CALM      30.04R
WARROAD        FAIR      52  48  87 CALM      30.06R
ROSEAU         FAIR      54  48  82 CALM      30.05R
HALLOCK        FAIR      63  55  77 SE8       30.02R
THF RVR FALLS  FAIR      60  54  80 S6        30.07R
BAUDETTE       FAIR      53  52  96 S3        30.06R
WASKISH          N/A     50  50 100 CALM      30.08R FOG
CROOKSTON      FAIR      57  54  88 SE8       30.05R
STEPHEN NDAWN    N/A     57  52  82 SE5         N/A
GREENBUSH NDAW   N/A     55  54  94 S3          N/A
$$
  *****  WEATHER ACROSS CENTRAL AND WEST MINNESOTA  *****

CITY           SKY/WX    TMP DP  RH WIND       PRES   REMARKS
FOSSTON        FAIR      55  52  88 SE3       30.08R
BEMIDJI        FAIR      48  47  97 CALM      30.09R
PARK RAPIDS    FAIR      56  53  90 SE5       30.09R
ELBOW LAKE     FAIR      63  58  83 SE9       30.04S
WADENA         FAIR      52  52 100 NE3       30.08R FOG
DETROIT LAKES  FAIR      59  54  82 SE5       30.08S
MOORHEAD       FAIR      63  55  77 SE3       30.03S
FERGUS FALLS   FAIR      64  55  72 SE10      29.99F
MORRIS MN      FAIR      63  57  82 SE9       30.02S
STAPLES        FAIR      54  54 100 E3        30.08S FOG
$$
  *****  WEATHER ELSEWHERE ACROSS MINNESOTA  *****

CITY           SKY/WX    TMP DP  RH WIND       PRES   REMARKS
DULUTH         FAIR      50  49  96 CALM      30.12R
INTRNTL FALLS  FAIR      46  46 100 CALM      30.08R
ELY            FAIR      48  46  93 CALM      30.11R
CLOQUET        FAIR      48  45  87 CALM      30.12R FOG
WHEATON        FAIR      63  55  77 SE10      30.02S
BRAINERD       FOG       53  51  93 CALM      30.10R VSB 1/4
HIBBING        FOG       43  42  97 CALM      30.12R VSB 1/4
ALEXANDRIA     FAIR      62  57  83 SE7       30.07S
SAINT CLOUD    FAIR      57  55  93 SE3       30.08R
MINNEAPOLIS    MOCLDY    63  59  87 SE5       30.09S FOG
$$

  *****  WEATHER ACROSS SOUTH DAKOTA  *****

CITY           SKY/WX    TMP DP  RH WIND       PRES   REMARKS
SIOUX FALLS    MOCLDY    65  63  93 SE10      29.99S
BROOKINGS      FAIR      65  61  87 SE16      30.00R
WATERTOWN      CLOUDY    65  63  93 SE12      30.01R THUNDER
HURON          FAIR      64  62  93 E6        29.93F
SISSETON         N/A     59  56  89 S5        30.00R
ABERDEEN       LGT RAIN  64  61  90 E10       29.99S
MITCHELL       FAIR      64  62  93 E5        29.94S
PIERRE         TSTM      63  63 100 N9        29.89R FOG
MOBRIDGE       LGT RAIN  63  60  90 E7        29.89F
RAPID CITY     FAIR      54  53  97 W7        29.90R
$$

  *****  SOME WEATHER IN NEARBY STATES *****

CITY           SKY/WX    TMP DP  RH WIND       PRES   REMARKS
GLASGOW MT     FAIR      54  48  80 NE6       29.89F
GREAT FALLS MT CLOUDY    52  47  83 SW7       29.95R
CHEYENNE WY    FAIR      45  43  93 W8        30.02R
SCOTTSBLUFF NE FAIR      52  52 100 CALM      29.97R
OMAHA NE       FAIR      68  63  84 SE7       30.03R
DES MOINES IA  FAIR      67  62  84 SE8       30.08R
DAVENPORT IA   FAIR      59  58  96 SE5       30.16R FOG
CHICAGO IL     MOCLDY    53  50  89 CALM      30.16R FOG
EAU CLAIRE WI  FAIR      48  48 100 CALM      30.13R FOG
LA CROSSE WI   CLOUDY    56  54  93 SE6       30.14R
$$

  *****  SOME NATIONAL WEATHER *****

CITY           SKY/WX    TMP DP  RH WIND       PRES   REMARKS
LA GUARDIA NY  PTSUNNY   62  59  90 CALM      29.90R
RALEIGH NC     MOCLDY    70  68  93 SW12      30.05R
ATLANTA GA     CLOUDY    70  67  90 E3        30.07R FOG
NEW ORLEANS LA FAIR      74  73  97 S3        30.02R
OKLAHOMA CITY  FAIR      66  65  96 S5        30.02R
ALBUQUERQUE NM FAIR      57  43  59 N6        30.04R
SALT LAKE CITY PTCLDY    55  46  71 SE12      29.93S
LOS ANGELES CA CLOUDY    59  54  83 W7        29.94R
BOISE ID       MOCLDY    60  50  69 SE12      29.83S
SEATTLE WA     FAIR      57  49  74 NW5       29.82S
$$

*** WEATHER ACROSS MANITOBA...SASKATCHEWAN AND ONTARIO ***
                ***ONTARIO***

CITY           SKY/WX    TMP DP  RH WIND       PRES   REMARKS
GERALDTON      MOCLDY    37  34  87 E7        30.14R
THUNDER BAY    MOCLDY    45  41  87 NE6       30.09R
SIOUX LOOKOUT  CLOUDY    45  45 100 S2        30.07S
TORONTO        MOSUNNY   54  52  94 W5        30.03R
BIG TROUT LK   CLEAR     32  28  86 SE5       30.15R
PICKLE LAKE    PTCLDY    43  37  81 SE7       30.09
DRYDEN         CLEAR     54  50  87 CALM      30.07R
KENORA         PTCLDY    57  46  67 S5        30.07R
$$
                *** MANITOBA***

CITY           SKY/WX    TMP DP  RH WIND       PRES   REMARKS
BRANDON        PTCLDY    52  45  76 E8        29.98R
DAUPHIN        CLEAR     48  45  87 W6        29.98R
ISLAND LAKE    PTCLDY    43  36  75 SE6       30.06S
PILOT MOUND      N/A     55  50  82 SE8         N/A
THE PAS        CLEAR     45  41  87 CALM      30.00R
THOMPSON       PTCLDY    41  36  81 S6        30.00F
WINNIPEG       PTCLDY    59  52  77 SE8       30.00S
LYNN LAKE      CLEAR     52  43  71 SW8       29.93S
CHURCHILL      MOCLDY    32  27  80 S18G26    29.87F WCI  20
GILLAM         MOCLDY    39  28  65 S7        30.02S
$$
                ***SASKATCHEWAN***

CITY           SKY/WX    TMP DP  RH WIND       PRES   REMARKS
ESTEVAN        MOCLDY    50  48  93 NE8       29.94S
KINDERSLEY     PTCLDY    55  41  58 SE5       29.93S
LLOYDMINSTER   CLEAR     52  45  76 S2        29.93S
PRINCE ALBERT  PTCLDY    48  43  81 SE3       29.98R
REGINA         PTCLDY    52  46  82 E7        29.96F
YORKTON        CLOUDY    55  50  82 NW2       29.97S
N. BATTLEFORD  CLEAR     46  43  87 E5        29.96S
LA RONGE       MOCLDY    50  45  81 CALM      29.96S
SASKATOON      PTCLDY    54  48  82 S5        29.96S
SWIFT CURRENT  CLEAR     52  43  71 S7        29.92S
$$
NOTE: THESE ARE AUTOMATED STATIONS WITH LIMITED QUALITY CONTROL
      "FAIR" INDICATES FEW OR NO CLOUDS BELOW 12,000 FEET WITH NO
      SIGNIFICANT WEATHER AND/OR OBSTRUCTIONS TO VISIBILITY.
      SKY/WX - SKY CONDITION AND SIGNIFICANT WEATHER.
      TMP - AIR TEMPERATURE.    DP   - DEWPOINT TEMPERATURE.
      RH  - RELATIVE HUMIDITY.  PRES - PRESSURE.
      HX  - HEAT INDEX.         WCI  - WIND CHILL INDEX.
$



USA.gov is the U.S. government's official web portal to all federal, state and local government web resources and services.